Weather in Gain

Ukraine / Rovno District     50°36′06″N   26°59′51″E
temp.,
°C
wind,
m/s
gust,
m/s
humid.,
%
clouds,
%
prec.,
mm/h
press.,
hPa
HPBL,
m
12 april, mon
mon1200:00+7sse49650 0.0 1026156
03:00+5se47631 0.0 1025102
06:00+4se46665 0.0 102493
09:00+9se46550 0.0 1024229
12:00+14se45390 0.0 10221067
15:00+16se44330 0.0 10201353
18:00+16se3340100 0.0 1019233
21:00+10se3353100 0.0 102035
13 april, tue
tue1300:00+8se356496 0.0 102062
03:00+7sse226766 0.0 102020
06:00+7se336845 0.0 101924
09:00+10se236048 0.0 1019188
12:00+15se3345100 0.0 1018851
15:00+17ene1139100 0.0 10171433
18:00+16e2347100 0.0 1015264
21:00+10se4981100 0.0 1016243
14 april, wed
wed1400:00+9sse2291100 0.0 101643
03:00+8s2284100 0.0 101438
06:00+8ene1186100 0.0 101415
09:00+10sse2380100 0.1 1014392
12:00+13se3465100 0.1 10131073
15:00+13e2266100 1.4 1013636
18:00+10ne3487100 2.9 1012223
21:00+9nne4796100 7.4 1013325
15 april, thu
thu1500:00+7nnw5796100 3.1 1014271
03:00+6nnw4594100 3.3 1014282
06:00+6nnw3495100 0.0 1014245
09:00+7nnw3394100 0.0 1014259
12:00+8n3491100 0.1 1014397
15:00+8n3489100 0.6 1013396
18:00+8nnw4693100 1.4 1012390
21:00+8nnw5995100 2.8 1012346
16 april, fri
fri1600:00+7n3698100 0.1 1012264
03:00+7nnw3498100 0.3 1011117
06:00+7n2298100 0.1 101162
09:00+8nnw2398100 0.9 1010157
12:00+8n3593100 2.6 1010336
15:00+9nne468788 4.1 1010484
18:00+9e488765 0.8 1010449
21:00+7ne479188 0.9 1011313